Regional Weather Roundup
Issued by NWS

Home | Current Version | Previous Version | Text Only | Print | Product List | Glossary Off
Versions: 1 2 3 4 5 6 7 8 9 10 11 12 13 14 15 16 17 18 19 20 21 22 23 24 25 26 27 28 29 30 31 32 33 34 35 36 37 38 39 40 41 42 43 44 45 46 47 48 49 50

000
ASUS43 KFSD 202110
RWRSD

WEATHER ROUNDUP FOR SOUTH DAKOTA
NATIONAL WEATHER SERVICE SIOUX FALLS SD
400 PM CDT MON OCT 20 2014

NOTE: "FAIR" INDICATES FEW OR NO CLOUDS BELOW 12,000 FEET WITH NO
SIGNIFICANT WEATHER AND/OR OBSTRUCTIONS TO VISIBILITY.


SDZ001>005-009-010-012>017-202200-
NORTHWEST AND NORTH CENTRAL SOUTH DAKOTA

CITY           SKY/WX    TMP DP  RH WIND       PRES   REMARKS
BUFFALO          N/A     75  40  28 SE17      29.86F
FAITH            N/A     74  41  30 SE20      29.93F
MOBRIDGE       SUNNY     73  35  25 S14       29.96F
$$

SDZ012>016-024>037-041>051-057-063-072>074-202200-
SOUTHWEST AND SOUTH CENTRAL SOUTH DAKOTA

CITY           SKY/WX    TMP DP  RH WIND       PRES   REMARKS
RAPID CTY ARPT SUNNY     76  44  32 S18G30    29.93F
PIERRE         SUNNY     75  38  26 SE17      29.97F
CUSTER         SUNNY     70  37  29 SW8       30.05F
ELLSWORTH AFB  SUNNY     75  44  33 S20G26    29.92F
PHILIP         SUNNY     80  43  26 S14       29.93F
PINE RIDGE     SUNNY     80  39  23 S16G25    29.97F
SPEARFISH      FAIR      75  45  33 E8        29.95F
WINNER         FAIR      77  38  24 S14G21    30.01F
$$

SDZ004>011-016>023-039-040-202200-
NORTHEAST SOUTH DAKOTA

CITY           SKY/WX    TMP DP  RH WIND       PRES   REMARKS
ABERDEEN       SUNNY     72  36  26 VRB5      30.03F
WATERTOWN      SUNNY     69  37  30 NW6       30.04S
SISSETON         N/A     70  40  33 N10G17    30.01F
$$

SDZ017-020-022-023-036>040-048>070-202200-
SOUTHEAST SOUTH DAKOTA

CITY           SKY/WX    TMP DP  RH WIND       PRES   REMARKS
SIOUX FALLS    MOSUNNY   70  40  33 NW6       30.04S
HURON          SUNNY     71  33  24 VRB3      30.03F
CHAMBERLAIN    SUNNY     73  36  26 S7        30.02F
MITCHELL       SUNNY     72  35  25 CALM      30.04F
YANKTON        SUNNY     70  39  32 S6        30.04F
$$

ABBREVIATIONS USED IN REMARKS
   TC - TEMPERATURE IN CELSIUS
  WCI - WIND CHILL INDEX
   HX - HEAT INDEX
  VSB - VISIBILITY



USA.gov is the U.S. government's official web portal to all federal, state and local government web resources and services.